owner,sensor,date,latitude,longitude,air_temperature,qcFlag 
COMPS,ioos:station:USF.COMPS:CAM:1,2013-12-03T16:00:00Z,27.7650,-82.6490,22.21,1111122 
COMPS,ioos:station:USF.COMPS:CAM:1,2013-12-03T16:06:00Z,27.7650,-82.6490,22.42,1111122 
COMPS,ioos:station:USF.COMPS:CAM:1,2013-12-03T16:12:00Z,27.7650,-82.6490,22.61,1111122 
COMPS,ioos:station:USF.COMPS:CAM:1,2013-12-03T16:18:00Z,27.7650,-82.6490,23.17,1111122 
COMPS,ioos:station:USF.COMPS:CAM:1,2013-12-03T16:24:00Z,27.7650,-82.6490,23.17,1111122 
COMPS,ioos:station:USF.COMPS:CAM:1,2013-12-03T16:30:00Z,27.7650,-82.6490,23.14,1111122 
COMPS,ioos:station:USF.COMPS:CAM:1,2013-12-03T16:36:00Z,27.7650,-82.6490,23.29,1111122 
COMPS,ioos:station:USF.COMPS:CAM:1,2013-12-03T16:42:00Z,27.7650,-82.6490,23.6,1111122 
COMPS,ioos:station:USF.COMPS:CAM:1,2013-12-03T16:48:00Z,27.7650,-82.6490,23.79,1111122 
COMPS,ioos:station:USF.COMPS:CAM:1,2013-12-03T16:54:00Z,27.7650,-82.6490,24.12,1111122 
COMPS,ioos:station:USF.COMPS:CAM:1,2013-12-03T17:00:00Z,27.7650,-82.6490,23.68,1111122 
COMPS,ioos:station:USF.COMPS:CAM:1,2013-12-03T17:06:00Z,27.7650,-82.6490,23.64,1111122 
COMPS,ioos:station:USF.COMPS:CAM:1,2013-12-03T17:12:00Z,27.7650,-82.6490,23.88,1111122 
COMPS,ioos:station:USF.COMPS:CAM:1,2013-12-03T17:18:00Z,27.7650,-82.6490,23.88,1111122 
COMPS,ioos:station:USF.COMPS:CAM:1,2013-12-03T17:24:00Z,27.7650,-82.6490,23.93,1111122 
COMPS,ioos:station:USF.COMPS:CAM:1,2013-12-03T17:30:00Z,27.7650,-82.6490,23.96,1111122 
COMPS,ioos:station:USF.COMPS:CAM:1,2013-12-03T17:36:00Z,27.7650,-82.6490,24.12,1111122 
COMPS,ioos:station:USF.COMPS:CAM:1,2013-12-03T17:42:00Z,27.7650,-82.6490,24.29,1111122 
COMPS,ioos:station:USF.COMPS:CAM:1,2013-12-03T17:48:00Z,27.7650,-82.6490,24.77,1111122 
COMPS,ioos:station:USF.COMPS:CAM:1,2013-12-03T17:54:00Z,27.7650,-82.6490,24.88,1111122 
COMPS,ioos:station:USF.COMPS:CAM:1,2013-12-03T18:00:00Z,27.7650,-82.6490,24.69,1111122 
COMPS,ioos:station:USF.COMPS:CAM:1,2013-12-03T18:06:00Z,27.7650,-82.6490,24.49,1111122 
COMPS,ioos:station:USF.COMPS:CAM:1,2013-12-03T18:12:00Z,27.7650,-82.6490,24.71,1111122 
COMPS,ioos:station:USF.COMPS:CAM:1,2013-12-03T18:18:00Z,27.7650,-82.6490,24.71,1111122 
COMPS,ioos:station:USF.COMPS:CAM:1,2013-12-03T18:24:00Z,27.7650,-82.6490,24.5,1111122 
COMPS,ioos:station:USF.COMPS:CAM:1,2013-12-03T18:30:00Z,27.7650,-82.6490,24.61,1111122 
COMPS,ioos:station:USF.COMPS:CAM:1,2013-12-03T18:36:00Z,27.7650,-82.6490,24.91,1111122 
COMPS,ioos:station:USF.COMPS:CAM:1,2013-12-03T18:42:00Z,27.7650,-82.6490,25.3,1111122 
COMPS,ioos:station:USF.COMPS:CAM:1,2013-12-03T18:48:00Z,27.7650,-82.6490,25.34,1111122 
COMPS,ioos:station:USF.COMPS:CAM:1,2013-12-03T18:54:00Z,27.7650,-82.6490,25.46,1111122 
COMPS,ioos:station:USF.COMPS:CAM:1,2013-12-03T19:00:00Z,27.7650,-82.6490,25.14,1111122 
COMPS,ioos:station:USF.COMPS:CAM:1,2013-12-03T19:06:00Z,27.7650,-82.6490,24.96,1111122 
COMPS,ioos:station:USF.COMPS:CAM:1,2013-12-03T19:12:00Z,27.7650,-82.6490,25.1,1111122 
COMPS,ioos:station:USF.COMPS:CAM:1,2013-12-03T19:18:00Z,27.7650,-82.6490,24.63,1111122 
COMPS,ioos:station:USF.COMPS:CAM:1,2013-12-03T19:24:00Z,27.7650,-82.6490,24.5,1111122 
COMPS,ioos:station:USF.COMPS:CAM:1,2013-12-03T19:30:00Z,27.7650,-82.6490,24.78,1111122 
COMPS,ioos:station:USF.COMPS:CAM:1,2013-12-03T19:36:00Z,27.7650,-82.6490,24.98,1111122 
COMPS,ioos:station:USF.COMPS:CAM:1,2013-12-03T19:42:00Z,27.7650,-82.6490,24.92,1111122 
COMPS,ioos:station:USF.COMPS:CAM:1,2013-12-03T19:48:00Z,27.7650,-82.6490,24.97,1111122 
COMPS,ioos:station:USF.COMPS:CAM:1,2013-12-03T19:54:00Z,27.7650,-82.6490,24.92,1111122 
COMPS,ioos:station:USF.COMPS:CAM:1,2013-12-03T20:00:00Z,27.7650,-82.6490,24.71,1111122 
COMPS,ioos:station:USF.COMPS:CAM:1,2013-12-03T20:06:00Z,27.7650,-82.6490,24.61,1111122 
COMPS,ioos:station:USF.COMPS:CAM:1,2013-12-03T20:12:00Z,27.7650,-82.6490,24.72,1111122 
COMPS,ioos:station:USF.COMPS:CAM:1,2013-12-03T20:18:00Z,27.7650,-82.6490,24.67,1111122 
COMPS,ioos:station:USF.COMPS:CAM:1,2013-12-03T20:24:00Z,27.7650,-82.6490,24.98,1111122 
COMPS,ioos:station:USF.COMPS:CAM:1,2013-12-03T20:30:00Z,27.7650,-82.6490,25.22,1111122 
COMPS,ioos:station:USF.COMPS:CAM:1,2013-12-03T20:36:00Z,27.7650,-82.6490,24.99,1111122 
COMPS,ioos:station:USF.COMPS:CAM:1,2013-12-03T20:42:00Z,27.7650,-82.6490,24.65,1111122 
COMPS,ioos:station:USF.COMPS:CAM:1,2013-12-03T20:48:00Z,27.7650,-82.6490,24.56,1111122 
COMPS,ioos:station:USF.COMPS:CAM:1,2013-12-03T20:54:00Z,27.7650,-82.6490,24.48,1111122 
COMPS,ioos:station:USF.COMPS:CAM:1,2013-12-03T21:00:00Z,27.7650,-82.6490,24.26,1111122 
COMPS,ioos:station:USF.COMPS:CAM:1,2013-12-03T21:06:00Z,27.7650,-82.6490,24.01,1111122 
COMPS,ioos:station:USF.COMPS:CAM:1,2013-12-03T21:12:00Z,27.7650,-82.6490,23.7,1111122 
COMPS,ioos:station:USF.COMPS:CAM:1,2013-12-03T21:18:00Z,27.7650,-82.6490,23.54,1111122 
COMPS,ioos:station:USF.COMPS:CAM:1,2013-12-03T21:24:00Z,27.7650,-82.6490,23.45,1111122 
COMPS,ioos:station:USF.COMPS:CAM:1,2013-12-03T21:30:00Z,27.7650,-82.6490,23.43,1111122 
COMPS,ioos:station:USF.COMPS:CAM:1,2013-12-03T21:36:00Z,27.7650,-82.6490,23.41,1111122 
COMPS,ioos:station:USF.COMPS:CAM:1,2013-12-03T21:42:00Z,27.7650,-82.6490,23.4,1111122 
COMPS,ioos:station:USF.COMPS:CAM:1,2013-12-03T21:48:00Z,27.7650,-82.6490,23.28,1111122 
COMPS,ioos:station:USF.COMPS:CAM:1,2013-12-03T21:54:00Z,27.7650,-82.6490,23.19,1111122 
COMPS,ioos:station:USF.COMPS:CAM:1,2013-12-03T22:00:00Z,27.7650,-82.6490,23.14,1111122 
COMPS,ioos:station:USF.COMPS:CAM:1,2013-12-03T22:06:00Z,27.7650,-82.6490,23.14,1111122 
COMPS,ioos:station:USF.COMPS:CAM:1,2013-12-03T22:12:00Z,27.7650,-82.6490,23.14,1111122 
COMPS,ioos:station:USF.COMPS:CAM:1,2013-12-03T22:18:00Z,27.7650,-82.6490,23.14,1111122 
COMPS,ioos:station:USF.COMPS:CAM:1,2013-12-03T22:24:00Z,27.7650,-82.6490,23.05,1111122 
COMPS,ioos:station:USF.COMPS:CAM:1,2013-12-03T22:30:00Z,27.7650,-82.6490,23.01,1111122 
COMPS,ioos:station:USF.COMPS:CAM:1,2013-12-03T22:36:00Z,27.7650,-82.6490,23.0,1111122 
COMPS,ioos:station:USF.COMPS:CAM:1,2013-12-03T22:42:00Z,27.7650,-82.6490,22.95,1111122 
COMPS,ioos:station:USF.COMPS:CAM:1,2013-12-03T22:48:00Z,27.7650,-82.6490,22.87,1111122 
COMPS,ioos:station:USF.COMPS:CAM:1,2013-12-03T22:54:00Z,27.7650,-82.6490,22.89,1111122 
COMPS,ioos:station:USF.COMPS:CAM:1,2013-12-03T23:00:00Z,27.7650,-82.6490,22.93,1111122 
COMPS,ioos:station:USF.COMPS:CAM:1,2013-12-03T23:06:00Z,27.7650,-82.6490,22.87,1111122 
COMPS,ioos:station:USF.COMPS:CAM:1,2013-12-03T23:12:00Z,27.7650,-82.6490,22.87,1111122 
COMPS,ioos:station:USF.COMPS:CAM:1,2013-12-03T23:18:00Z,27.7650,-82.6490,22.87,1111122 
COMPS,ioos:station:USF.COMPS:CAM:1,2013-12-03T23:24:00Z,27.7650,-82.6490,22.87,1111122 
COMPS,ioos:station:USF.COMPS:CAM:1,2013-12-03T23:30:00Z,27.7650,-82.6490,22.76,1111122 
COMPS,ioos:station:USF.COMPS:CAM:1,2013-12-03T23:36:00Z,27.7650,-82.6490,22.74,1111122 
COMPS,ioos:station:USF.COMPS:CAM:1,2013-12-03T23:42:00Z,27.7650,-82.6490,22.69,1111122 
COMPS,ioos:station:USF.COMPS:CAM:1,2013-12-03T23:48:00Z,27.7650,-82.6490,22.6,1111122 
COMPS,ioos:station:USF.COMPS:CAM:1,2013-12-03T23:54:00Z,27.7650,-82.6490,22.6,1111122 
COMPS,ioos:station:USF.COMPS:CAM:1,2013-12-04T00:00:00Z,27.7650,-82.6490,22.6,1111122 
COMPS,ioos:station:USF.COMPS:CAM:1,2013-12-04T00:06:00Z,27.7650,-82.6490,22.59,1111122 
COMPS,ioos:station:USF.COMPS:CAM:1,2013-12-04T00:12:00Z,27.7650,-82.6490,22.54,1111122 
COMPS,ioos:station:USF.COMPS:CAM:1,2013-12-04T00:18:00Z,27.7650,-82.6490,22.47,1111122 
COMPS,ioos:station:USF.COMPS:CAM:1,2013-12-04T00:24:00Z,27.7650,-82.6490,22.46,1111122 
COMPS,ioos:station:USF.COMPS:CAM:1,2013-12-04T00:30:00Z,27.7650,-82.6490,22.36,1111122 
COMPS,ioos:station:USF.COMPS:CAM:1,2013-12-04T00:36:00Z,27.7650,-82.6490,22.33,1111122 
COMPS,ioos:station:USF.COMPS:CAM:1,2013-12-04T00:42:00Z,27.7650,-82.6490,22.33,1111122 
COMPS,ioos:station:USF.COMPS:CAM:1,2013-12-04T00:48:00Z,27.7650,-82.6490,22.32,1111122 
COMPS,ioos:station:USF.COMPS:CAM:1,2013-12-04T00:54:00Z,27.7650,-82.6490,22.27,1111122 
COMPS,ioos:station:USF.COMPS:CAM:1,2013-12-04T01:00:00Z,27.7650,-82.6490,22.19,1111122 
COMPS,ioos:station:USF.COMPS:CAM:1,2013-12-04T01:06:00Z,27.7650,-82.6490,22.1,1111122 
COMPS,ioos:station:USF.COMPS:CAM:1,2013-12-04T01:12:00Z,27.7650,-82.6490,22.02,1111122 
COMPS,ioos:station:USF.COMPS:CAM:1,2013-12-04T01:18:00Z,27.7650,-82.6490,21.92,1111122 
COMPS,ioos:station:USF.COMPS:CAM:1,2013-12-04T01:24:00Z,27.7650,-82.6490,21.92,1111122 
COMPS,ioos:station:USF.COMPS:CAM:1,2013-12-04T01:30:00Z,27.7650,-82.6490,21.92,1111122 
COMPS,ioos:station:USF.COMPS:CAM:1,2013-12-04T01:36:00Z,27.7650,-82.6490,21.91,1111122 
COMPS,ioos:station:USF.COMPS:CAM:1,2013-12-04T01:42:00Z,27.7650,-82.6490,21.8,1111122 
COMPS,ioos:station:USF.COMPS:CAM:1,2013-12-04T01:48:00Z,27.7650,-82.6490,21.79,1111122 
COMPS,ioos:station:USF.COMPS:CAM:1,2013-12-04T01:54:00Z,27.7650,-82.6490,21.78,1111122 
COMPS,ioos:station:USF.COMPS:CAM:1,2013-12-04T02:00:00Z,27.7650,-82.6490,21.79,1111122 
COMPS,ioos:station:USF.COMPS:CAM:1,2013-12-04T02:06:00Z,27.7650,-82.6490,21.79,1111122 
COMPS,ioos:station:USF.COMPS:CAM:1,2013-12-04T02:12:00Z,27.7650,-82.6490,21.79,1111122 
COMPS,ioos:station:USF.COMPS:CAM:1,2013-12-04T02:18:00Z,27.7650,-82.6490,21.79,1111122 
COMPS,ioos:station:USF.COMPS:CAM:1,2013-12-04T02:24:00Z,27.7650,-82.6490,21.78,1111122 
COMPS,ioos:station:USF.COMPS:CAM:1,2013-12-04T02:30:00Z,27.7650,-82.6490,21.79,1111122 
COMPS,ioos:station:USF.COMPS:CAM:1,2013-12-04T02:36:00Z,27.7650,-82.6490,21.79,1111122 
COMPS,ioos:station:USF.COMPS:CAM:1,2013-12-04T02:42:00Z,27.7650,-82.6490,21.79,1111122 
COMPS,ioos:station:USF.COMPS:CAM:1,2013-12-04T02:48:00Z,27.7650,-82.6490,21.78,1111122 
COMPS,ioos:station:USF.COMPS:CAM:1,2013-12-04T02:54:00Z,27.7650,-82.6490,21.74,1111122 
COMPS,ioos:station:USF.COMPS:CAM:1,2013-12-04T03:00:00Z,27.7650,-82.6490,21.65,1111122 
COMPS,ioos:station:USF.COMPS:CAM:1,2013-12-04T03:06:00Z,27.7650,-82.6490,21.59,1111122 
COMPS,ioos:station:USF.COMPS:CAM:1,2013-12-04T03:12:00Z,27.7650,-82.6490,21.52,1111122 
COMPS,ioos:station:USF.COMPS:CAM:1,2013-12-04T03:18:00Z,27.7650,-82.6490,21.52,1111122 
COMPS,ioos:station:USF.COMPS:CAM:1,2013-12-04T03:24:00Z,27.7650,-82.6490,21.45,1111122 
COMPS,ioos:station:USF.COMPS:CAM:1,2013-12-04T03:30:00Z,27.7650,-82.6490,21.38,1111122 
COMPS,ioos:station:USF.COMPS:CAM:1,2013-12-04T03:36:00Z,27.7650,-82.6490,21.35,1111122 
COMPS,ioos:station:USF.COMPS:CAM:1,2013-12-04T03:42:00Z,27.7650,-82.6490,21.28,1111122 
COMPS,ioos:station:USF.COMPS:CAM:1,2013-12-04T03:48:00Z,27.7650,-82.6490,21.25,1111122 
COMPS,ioos:station:USF.COMPS:CAM:1,2013-12-04T03:54:00Z,27.7650,-82.6490,21.3,1111122 
COMPS,ioos:station:USF.COMPS:CAM:1,2013-12-04T04:00:00Z,27.7650,-82.6490,21.38,1111122 
COMPS,ioos:station:USF.COMPS:CAM:1,2013-12-04T04:06:00Z,27.7650,-82.6490,21.38,1111122 
COMPS,ioos:station:USF.COMPS:CAM:1,2013-12-04T04:12:00Z,27.7650,-82.6490,21.38,1111122 
COMPS,ioos:station:USF.COMPS:CAM:1,2013-12-04T04:18:00Z,27.7650,-82.6490,21.41,1111122 
COMPS,ioos:station:USF.COMPS:CAM:1,2013-12-04T04:24:00Z,27.7650,-82.6490,21.53,1111122 
COMPS,ioos:station:USF.COMPS:CAM:1,2013-12-04T04:30:00Z,27.7650,-82.6490,21.57,1111122 
COMPS,ioos:station:USF.COMPS:CAM:1,2013-12-04T04:36:00Z,27.7650,-82.6490,21.64,1111122 
COMPS,ioos:station:USF.COMPS:CAM:1,2013-12-04T04:42:00Z,27.7650,-82.6490,21.61,1111122 
COMPS,ioos:station:USF.COMPS:CAM:1,2013-12-04T04:48:00Z,27.7650,-82.6490,21.6,1111122 
COMPS,ioos:station:USF.COMPS:CAM:1,2013-12-04T04:54:00Z,27.7650,-82.6490,21.52,1111122 
COMPS,ioos:station:USF.COMPS:CAM:1,2013-12-04T05:00:00Z,27.7650,-82.6490,21.52,1111122 
COMPS,ioos:station:USF.COMPS:CAM:1,2013-12-04T05:06:00Z,27.7650,-82.6490,21.52,1111122 
COMPS,ioos:station:USF.COMPS:CAM:1,2013-12-04T05:12:00Z,27.7650,-82.6490,21.57,1111122 
COMPS,ioos:station:USF.COMPS:CAM:1,2013-12-04T05:18:00Z,27.7650,-82.6490,21.52,1111122 
COMPS,ioos:station:USF.COMPS:CAM:1,2013-12-04T05:24:00Z,27.7650,-82.6490,21.49,1111122 
COMPS,ioos:station:USF.COMPS:CAM:1,2013-12-04T05:30:00Z,27.7650,-82.6490,21.38,1111122 
COMPS,ioos:station:USF.COMPS:CAM:1,2013-12-04T05:36:00Z,27.7650,-82.6490,21.26,1111122 
COMPS,ioos:station:USF.COMPS:CAM:1,2013-12-04T05:42:00Z,27.7650,-82.6490,21.22,1111122 
COMPS,ioos:station:USF.COMPS:CAM:1,2013-12-04T05:48:00Z,27.7650,-82.6490,21.1,1111122 
COMPS,ioos:station:USF.COMPS:CAM:1,2013-12-04T05:54:00Z,27.7650,-82.6490,20.97,1111122 
COMPS,ioos:station:USF.COMPS:CAM:1,2013-12-04T06:00:00Z,27.7650,-82.6490,20.96,1111122 
COMPS,ioos:station:USF.COMPS:CAM:1,2013-12-04T06:06:00Z,27.7650,-82.6490,20.94,1111122 
COMPS,ioos:station:USF.COMPS:CAM:1,2013-12-04T06:12:00Z,27.7650,-82.6490,20.92,1111122 
COMPS,ioos:station:USF.COMPS:CAM:1,2013-12-04T06:18:00Z,27.7650,-82.6490,20.82,1111122 
COMPS,ioos:station:USF.COMPS:CAM:1,2013-12-04T06:24:00Z,27.7650,-82.6490,20.7,1111122 
COMPS,ioos:station:USF.COMPS:CAM:1,2013-12-04T06:30:00Z,27.7650,-82.6490,20.63,1111122 
COMPS,ioos:station:USF.COMPS:CAM:1,2013-12-04T06:36:00Z,27.7650,-82.6490,20.59,1111122 
COMPS,ioos:station:USF.COMPS:CAM:1,2013-12-04T06:42:00Z,27.7650,-82.6490,20.57,1111122 
COMPS,ioos:station:USF.COMPS:CAM:1,2013-12-04T06:48:00Z,27.7650,-82.6490,20.52,1111122 
COMPS,ioos:station:USF.COMPS:CAM:1,2013-12-04T06:54:00Z,27.7650,-82.6490,20.43,1111122 
COMPS,ioos:station:USF.COMPS:CAM:1,2013-12-04T07:00:00Z,27.7650,-82.6490,20.42,1111122 
COMPS,ioos:station:USF.COMPS:CAM:1,2013-12-04T07:06:00Z,27.7650,-82.6490,20.33,1111122 
COMPS,ioos:station:USF.COMPS:CAM:1,2013-12-04T07:12:00Z,27.7650,-82.6490,20.23,1111122 
COMPS,ioos:station:USF.COMPS:CAM:1,2013-12-04T07:18:00Z,27.7650,-82.6490,20.16,1111122 
COMPS,ioos:station:USF.COMPS:CAM:1,2013-12-04T07:24:00Z,27.7650,-82.6490,20.16,1111122 
COMPS,ioos:station:USF.COMPS:CAM:1,2013-12-04T07:30:00Z,27.7650,-82.6490,20.16,1111122 
COMPS,ioos:station:USF.COMPS:CAM:1,2013-12-04T07:36:00Z,27.7650,-82.6490,20.15,1111122 
COMPS,ioos:station:USF.COMPS:CAM:1,2013-12-04T07:42:00Z,27.7650,-82.6490,20.12,1111122 
COMPS,ioos:station:USF.COMPS:CAM:1,2013-12-04T07:48:00Z,27.7650,-82.6490,20.05,1111122 
COMPS,ioos:station:USF.COMPS:CAM:1,2013-12-04T07:54:00Z,27.7650,-82.6490,20.02,1111122 
COMPS,ioos:station:USF.COMPS:CAM:1,2013-12-04T08:00:00Z,27.7650,-82.6490,20.02,1111122 
COMPS,ioos:station:USF.COMPS:CAM:1,2013-12-04T08:06:00Z,27.7650,-82.6490,20.02,1111122 
COMPS,ioos:station:USF.COMPS:CAM:1,2013-12-04T08:12:00Z,27.7650,-82.6490,20.02,1111122 
COMPS,ioos:station:USF.COMPS:CAM:1,2013-12-04T08:18:00Z,27.7650,-82.6490,20.02,1111122 
COMPS,ioos:station:USF.COMPS:CAM:1,2013-12-04T08:24:00Z,27.7650,-82.6490,20.05,1111122 
COMPS,ioos:station:USF.COMPS:CAM:1,2013-12-04T08:30:00Z,27.7650,-82.6490,20.16,1111122 
COMPS,ioos:station:USF.COMPS:CAM:1,2013-12-04T08:36:00Z,27.7650,-82.6490,20.19,1111122 
COMPS,ioos:station:USF.COMPS:CAM:1,2013-12-04T08:42:00Z,27.7650,-82.6490,20.38,1111122 
COMPS,ioos:station:USF.COMPS:CAM:1,2013-12-04T08:48:00Z,27.7650,-82.6490,20.52,1111122 
COMPS,ioos:station:USF.COMPS:CAM:1,2013-12-04T08:54:00Z,27.7650,-82.6490,20.48,1111122 
COMPS,ioos:station:USF.COMPS:CAM:1,2013-12-04T09:00:00Z,27.7650,-82.6490,20.26,1111122 
COMPS,ioos:station:USF.COMPS:CAM:1,2013-12-04T09:06:00Z,27.7650,-82.6490,20.31,1111122 
COMPS,ioos:station:USF.COMPS:CAM:1,2013-12-04T09:12:00Z,27.7650,-82.6490,20.45,1111122 
COMPS,ioos:station:USF.COMPS:CAM:1,2013-12-04T09:18:00Z,27.7650,-82.6490,20.48,1111122 
COMPS,ioos:station:USF.COMPS:CAM:1,2013-12-04T09:24:00Z,27.7650,-82.6490,20.57,1111122 
COMPS,ioos:station:USF.COMPS:CAM:1,2013-12-04T09:30:00Z,27.7650,-82.6490,20.56,1111122 
COMPS,ioos:station:USF.COMPS:CAM:1,2013-12-04T09:36:00Z,27.7650,-82.6490,20.55,1111122 
COMPS,ioos:station:USF.COMPS:CAM:1,2013-12-04T09:42:00Z,27.7650,-82.6490,20.44,1111122 
COMPS,ioos:station:USF.COMPS:CAM:1,2013-12-04T09:48:00Z,27.7650,-82.6490,20.42,1111122 
COMPS,ioos:station:USF.COMPS:CAM:1,2013-12-04T09:54:00Z,27.7650,-82.6490,20.31,1111122 
COMPS,ioos:station:USF.COMPS:CAM:1,2013-12-04T10:00:00Z,27.7650,-82.6490,20.17,1111122 
COMPS,ioos:station:USF.COMPS:CAM:1,2013-12-04T10:06:00Z,27.7650,-82.6490,20.01,1111122 
COMPS,ioos:station:USF.COMPS:CAM:1,2013-12-04T10:12:00Z,27.7650,-82.6490,19.87,1111122 
COMPS,ioos:station:USF.COMPS:CAM:1,2013-12-04T10:18:00Z,27.7650,-82.6490,19.74,1111122 
COMPS,ioos:station:USF.COMPS:CAM:1,2013-12-04T10:24:00Z,27.7650,-82.6490,19.54,1111122 
COMPS,ioos:station:USF.COMPS:CAM:1,2013-12-04T10:30:00Z,27.7650,-82.6490,19.62,1111122 
COMPS,ioos:station:USF.COMPS:CAM:1,2013-12-04T10:36:00Z,27.7650,-82.6490,19.64,1111122 
COMPS,ioos:station:USF.COMPS:CAM:1,2013-12-04T10:42:00Z,27.7650,-82.6490,19.79,1111122 
COMPS,ioos:station:USF.COMPS:CAM:1,2013-12-04T10:48:00Z,27.7650,-82.6490,19.77,1111122 
COMPS,ioos:station:USF.COMPS:CAM:1,2013-12-04T10:54:00Z,27.7650,-82.6490,19.75,1111122 
COMPS,ioos:station:USF.COMPS:CAM:1,2013-12-04T11:00:00Z,27.7650,-82.6490,19.75,1111122 
COMPS,ioos:station:USF.COMPS:CAM:1,2013-12-04T11:06:00Z,27.7650,-82.6490,19.74,1111122 
COMPS,ioos:station:USF.COMPS:CAM:1,2013-12-04T11:12:00Z,27.7650,-82.6490,19.74,1111122 
COMPS,ioos:station:USF.COMPS:CAM:1,2013-12-04T11:18:00Z,27.7650,-82.6490,19.75,1111122 
COMPS,ioos:station:USF.COMPS:CAM:1,2013-12-04T11:24:00Z,27.7650,-82.6490,19.74,1111122 
COMPS,ioos:station:USF.COMPS:CAM:1,2013-12-04T11:30:00Z,27.7650,-82.6490,19.75,1111122 
COMPS,ioos:station:USF.COMPS:CAM:1,2013-12-04T11:36:00Z,27.7650,-82.6490,19.75,1111122 
COMPS,ioos:station:USF.COMPS:CAM:1,2013-12-04T11:42:00Z,27.7650,-82.6490,19.68,1111122 
COMPS,ioos:station:USF.COMPS:CAM:1,2013-12-04T11:48:00Z,27.7650,-82.6490,19.55,1111122 
COMPS,ioos:station:USF.COMPS:CAM:1,2013-12-04T11:54:00Z,27.7650,-82.6490,19.34,1111122 
COMPS,ioos:station:USF.COMPS:CAM:1,2013-12-04T12:00:00Z,27.7650,-82.6490,19.46,1111122 
COMPS,ioos:station:USF.COMPS:CAM:1,2013-12-04T12:06:00Z,27.7650,-82.6490,19.37,1111122 
COMPS,ioos:station:USF.COMPS:CAM:1,2013-12-04T12:12:00Z,27.7650,-82.6490,19.37,1111122 
COMPS,ioos:station:USF.COMPS:CAM:1,2013-12-04T12:18:00Z,27.7650,-82.6490,19.29,1111122 
COMPS,ioos:station:USF.COMPS:CAM:1,2013-12-04T12:24:00Z,27.7650,-82.6490,19.48,1111122 
COMPS,ioos:station:USF.COMPS:CAM:1,2013-12-04T12:30:00Z,27.7650,-82.6490,19.66,1111122 
COMPS,ioos:station:USF.COMPS:CAM:1,2013-12-04T12:36:00Z,27.7650,-82.6490,19.83,1111122 
COMPS,ioos:station:USF.COMPS:CAM:1,2013-12-04T12:42:00Z,27.7650,-82.6490,19.96,1111122 
COMPS,ioos:station:USF.COMPS:CAM:1,2013-12-04T12:48:00Z,27.7650,-82.6490,20.09,1111122 
COMPS,ioos:station:USF.COMPS:CAM:1,2013-12-04T12:54:00Z,27.7650,-82.6490,20.23,1111122 
COMPS,ioos:station:USF.COMPS:CAM:1,2013-12-04T13:00:00Z,27.7650,-82.6490,20.46,1111122 
COMPS,ioos:station:USF.COMPS:CAM:1,2013-12-04T13:06:00Z,27.7650,-82.6490,20.38,1111122 
COMPS,ioos:station:USF.COMPS:CAM:1,2013-12-04T13:12:00Z,27.7650,-82.6490,20.29,1111122 
COMPS,ioos:station:USF.COMPS:CAM:1,2013-12-04T13:18:00Z,27.7650,-82.6490,20.42,1111122 
COMPS,ioos:station:USF.COMPS:CAM:1,2013-12-04T13:24:00Z,27.7650,-82.6490,20.44,1111122 
COMPS,ioos:station:USF.COMPS:CAM:1,2013-12-04T13:30:00Z,27.7650,-82.6490,20.67,1111122 
COMPS,ioos:station:USF.COMPS:CAM:1,2013-12-04T13:36:00Z,27.7650,-82.6490,20.89,1111122 
COMPS,ioos:station:USF.COMPS:CAM:1,2013-12-04T13:42:00Z,27.7650,-82.6490,21.25,1111122 
COMPS,ioos:station:USF.COMPS:CAM:1,2013-12-04T13:48:00Z,27.7650,-82.6490,21.65,1111122 
COMPS,ioos:station:USF.COMPS:CAM:1,2013-12-04T13:54:00Z,27.7650,-82.6490,21.79,1111122 
COMPS,ioos:station:USF.COMPS:CAM:1,2013-12-04T14:00:00Z,27.7650,-82.6490,22.02,1111122 
COMPS,ioos:station:USF.COMPS:CAM:1,2013-12-04T14:06:00Z,27.7650,-82.6490,22.19,1111122 
COMPS,ioos:station:USF.COMPS:CAM:1,2013-12-04T14:12:00Z,27.7650,-82.6490,22.25,1111122 
COMPS,ioos:station:USF.COMPS:CAM:1,2013-12-04T14:18:00Z,27.7650,-82.6490,22.37,1111122 
COMPS,ioos:station:USF.COMPS:CAM:1,2013-12-04T14:24:00Z,27.7650,-82.6490,22.55,1111122 
COMPS,ioos:station:USF.COMPS:CAM:1,2013-12-04T14:30:00Z,27.7650,-82.6490,22.61,1111122 
COMPS,ioos:station:USF.COMPS:CAM:1,2013-12-04T14:36:00Z,27.7650,-82.6490,22.82,1111122 
COMPS,ioos:station:USF.COMPS:CAM:1,2013-12-04T14:42:00Z,27.7650,-82.6490,23.08,1111122 
COMPS,ioos:station:USF.COMPS:CAM:1,2013-12-04T14:48:00Z,27.7650,-82.6490,23.62,1111122 
COMPS,ioos:station:USF.COMPS:CAM:1,2013-12-04T14:54:00Z,27.7650,-82.6490,23.98,1111122 
COMPS,ioos:station:USF.COMPS:CAM:1,2013-12-04T15:00:00Z,27.7650,-82.6490,24.07,1111122 
COMPS,ioos:station:USF.COMPS:CAM:1,2013-12-04T15:06:00Z,27.7650,-82.6490,23.96,1111122 
COMPS,ioos:station:USF.COMPS:CAM:1,2013-12-04T15:12:00Z,27.7650,-82.6490,23.76,1111122 
COMPS,ioos:station:USF.COMPS:CAM:1,2013-12-04T15:18:00Z,27.7650,-82.6490,23.76,1111122 
COMPS,ioos:station:USF.COMPS:CAM:1,2013-12-04T15:24:00Z,27.7650,-82.6490,24.15,1111122 
COMPS,ioos:station:USF.COMPS:CAM:1,2013-12-04T15:30:00Z,27.7650,-82.6490,24.55,1111122 
COMPS,ioos:station:USF.COMPS:CAM:1,2013-12-04T15:36:00Z,27.7650,-82.6490,24.54,1111122 
COMPS,ioos:station:USF.COMPS:CAM:1,2013-12-04T15:42:00Z,27.7650,-82.6490,24.49,1111122 
COMPS,ioos:station:USF.COMPS:CAM:1,2013-12-04T15:48:00Z,27.7650,-82.6490,24.51,1111122 
COMPS,ioos:station:USF.COMPS:CAM:1,2013-12-04T15:54:00Z,27.7650,-82.6490,24.64,1111122 
COMPS,ioos:station:USF.COMPS:CAM:1,2013-12-04T16:00:00Z,27.7650,-82.6490,25.15,1111122 
COMPS,ioos:station:USF.COMPS:CAM:1,2013-12-04T16:06:00Z,27.7650,-82.6490,25.59,1111122 
COMPS,ioos:station:USF.COMPS:CAM:1,2013-12-04T16:12:00Z,27.7650,-82.6490,25.68,1111122 
COMPS,ioos:station:USF.COMPS:CAM:1,2013-12-04T16:18:00Z,27.7650,-82.6490,25.93,1111122 
COMPS,ioos:station:USF.COMPS:CAM:1,2013-12-04T16:24:00Z,27.7650,-82.6490,26.22,1111122 
COMPS,ioos:station:USF.COMPS:CAM:1,2013-12-04T16:30:00Z,27.7650,-82.6490,26.4,1111122 
COMPS,ioos:station:USF.COMPS:CAM:1,2013-12-04T16:36:00Z,27.7650,-82.6490,26.69,1111122 
COMPS,ioos:station:USF.COMPS:CAM:1,2013-12-04T16:42:00Z,27.7650,-82.6490,26.73,1111122 
COMPS,ioos:station:USF.COMPS:CAM:1,2013-12-04T16:48:00Z,27.7650,-82.6490,26.83,1111122 
COMPS,ioos:station:USF.COMPS:CAM:1,2013-12-04T16:54:00Z,27.7650,-82.6490,26.97,1111122 
COMPS,ioos:station:USF.COMPS:CAM:1,2013-12-04T17:00:00Z,27.7650,-82.6490,27.16,1111122 
COMPS,ioos:station:USF.COMPS:CAM:1,2013-12-04T17:06:00Z,27.7650,-82.6490,27.41,1111122 
COMPS,ioos:station:USF.COMPS:CAM:1,2013-12-04T17:12:00Z,27.7650,-82.6490,27.23,1111122 
COMPS,ioos:station:USF.COMPS:CAM:1,2013-12-04T17:18:00Z,27.7650,-82.6490,27.03,1111122 
COMPS,ioos:station:USF.COMPS:CAM:1,2013-12-04T17:24:00Z,27.7650,-82.6490,26.79,1111122 
COMPS,ioos:station:USF.COMPS:CAM:1,2013-12-04T17:30:00Z,27.7650,-82.6490,26.92,1111122 
COMPS,ioos:station:USF.COMPS:CAM:1,2013-12-04T17:36:00Z,27.7650,-82.6490,27.22,1111122 
COMPS,ioos:station:USF.COMPS:CAM:1,2013-12-04T17:42:00Z,27.7650,-82.6490,27.29,1111122 
COMPS,ioos:station:USF.COMPS:CAM:1,2013-12-04T17:48:00Z,27.7650,-82.6490,27.51,1111122 
COMPS,ioos:station:USF.COMPS:CAM:1,2013-12-04T17:54:00Z,27.7650,-82.6490,27.22,1111122 
COMPS,ioos:station:USF.COMPS:CAM:1,2013-12-04T18:00:00Z,27.7650,-82.6490,27.48,1111122 
COMPS,ioos:station:USF.COMPS:CAM:1,2013-12-04T18:06:00Z,27.7650,-82.6490,27.54,1111122 
COMPS,ioos:station:USF.COMPS:CAM:1,2013-12-04T18:12:00Z,27.7650,-82.6490,27.9,1111122 
COMPS,ioos:station:USF.COMPS:CAM:1,2013-12-04T18:18:00Z,27.7650,-82.6490,27.71,1111122 
COMPS,ioos:station:USF.COMPS:CAM:1,2013-12-04T18:24:00Z,27.7650,-82.6490,27.6,1111122 
COMPS,ioos:station:USF.COMPS:CAM:1,2013-12-04T18:30:00Z,27.7650,-82.6490,27.73,1111122 
COMPS,ioos:station:USF.COMPS:CAM:1,2013-12-04T18:36:00Z,27.7650,-82.6490,27.69,1111122 
COMPS,ioos:station:USF.COMPS:CAM:1,2013-12-04T18:42:00Z,27.7650,-82.6490,27.66,1111122 
COMPS,ioos:station:USF.COMPS:CAM:1,2013-12-04T18:48:00Z,27.7650,-82.6490,27.95,1111122 
COMPS,ioos:station:USF.COMPS:CAM:1,2013-12-04T18:54:00Z,27.7650,-82.6490,27.72,1111122 
COMPS,ioos:station:USF.COMPS:CAM:1,2013-12-04T19:00:00Z,27.7650,-82.6490,27.84,1111122 
COMPS,ioos:station:USF.COMPS:CAM:1,2013-12-04T19:06:00Z,27.7650,-82.6490,27.62,1111122 